Location: Breezy Point Observatory
(38.9725°N, 81.7133°W)
Time: 16:14:21
(UTC-04:00)

Hubble Space Telescope - Visible Passes

Search period start: 30 September 2016 00:00
Search period end: 10 October 2016 00:00
Orbit: 539 x 542 km, 28.5° (Epoch: 30 September)

Date Brightness Start Highest point End Pass type
(mag) Time Alt. Az. Time Alt. Az. Time Alt. Az.
06 Oct 3.3 21:06:33 10° SSW 21:07:14 12° SSW 21:07:14 12° SSW visible
07 Oct 3.0 20:56:27 10° SW 20:58:02 16° SSW 20:58:02 16° SSW visible
08 Oct 2.7 20:46:25 10° SW 20:48:47 18° S 20:48:47 18° S visible
09 Oct 2.6 20:36:27 10° SW 20:39:24 19° S 20:39:30 19° S visible
